星链-30272 (STARLINK-30272 )

导读

STARLINK-30272是美国SpaceX公司星链(Starlink)星座的第二代低轨通信卫星,于2023年9月12日发射升空。星链二代卫星作为当前星座主力,配备增强型相控阵天线与激光星间链路,单星容量超100 Gbps,可为全球提供高速低延迟卫星互联网服务,支持手机直连、应急通信等多元应用,服役期结束后会在大气层完全销毁以减少空间碎片。

Basic Information
目录编号:
57860
目录名称:
STARLINK-30272
国际标识:
2023-141W
轨道中心:
EARTH
卫星名称:
星链-30272
卫星全名:
星链-30272 (STARLINK-30272 )
卫星状态:
在轨 (已飞行1010 天)
发射日期:
2023-09-12 UTC
国别 :
美国 (US)
星等 :
--
Orbit Information
数据来源 国际轨道数据 AOE轨道数据
星历时间 2026-06-18T08:03:18+0800
14小时前
查看轨道信息
2026-06-13T07:00:00+0800
5天前
查看轨道信息
半长轴 6848.879km 6848.882km
偏心率 0.0001139 0.0001483
轨道倾角 53.159° 53.157°
近地点辐角 86.948° 70.570°
升交点赤经 177.661° 201.147°
平近点角 273.165° 180.995°
近地点 469.961km 469.729km
远地点 471.523km 471.761km
周期 94.013分钟 94.013分钟
每日圈数 15.316994 15.316984
Detailed Information
固有亮度:
5
最大亮度:
0.3
卫星平台:
Starlink v2.0 mini
覆盖范围:
全球
运营商:
太空探索技术公司
运营商所在国:
美国
制造商(研发单位):
太空探索技术公司
制造商所在国:
美国
使用方式:
暂无
Satellite Introduction
星链(Starlink)计划是由太空探索技术公司(SpaceX)提出的一个巨型低轨卫星互联网星座项目,计划在2019年至2024年间在太空搭建由约1.2万颗卫星组成的“星链”网络,其中1584颗将部署在地球上空550千米处的近地轨道,并从2020年开始工作。该卫星仍在工作。
2D Orbit Map
3D Orbit Map
Orbit Altitude Analysis Chart
Orbit Inclination Analysis Chart
Orbit Comprehensive Analysis Chart
View Comprehensive Chart